Yakima, WA
on Tuesday, February 19, 2013

Tuesday
Previous Day Next Day
Daily Summary
 ActualAverageRecord
Temperature
Mean Temperature °F 37°F  
Max Temperature 49°F 48°F 66°F (1991)
Min Temperature 22°F 26°F 7°F (2006)
Degree Days
Heating Degree Days 29 28  
Month to date heating degree days 466 566  
Since 1 July heating degree days 3735 4284  
Cooling Degree Days 0 0  
Month to date cooling degree days 0 0  
Year to date cooling degree days 0 0  
Moisture
Dew Point 23°F   
Average Humidity 65    
Maximum Humidity 88    
Minimum Humidity 42    
Precipitation
Precipitation 0.00 in 0.03 in 0.37 in (1993)
Month to date precipitation T 0.54  
Year to date precipitation 0.10 1.68  
Snow
Snow 0.00 in 0.00 in 4.40 in (1993)
Month to date snowfall 0.0 1.9  
Year to date snowfall 1.1 7.2  
Since 1 July snowfall 15.3 20.2  
Snow Depth 0.00 in   
Wind
Wind Speed 4 mph   
Max Wind Speed 9 mph   
Max Gust Speed 15 mph   
Visibility 10 miles   
Events     

Key: T is trace of precipitation, MM is missing value
Source: NWS Daily Summary
Time(PST)TemperatureDew PointHumidity Pressure Visibility Wind DirectionWind SpeedGust SpeedPrecipitationEvents Conditions
12:53 AM 28.0°F 23.0°F 81% 29.80 in 10.0 miles NW 5.8 mph - N/A   Clear
1:53 AM 25.0°F 19.9°F 81% 29.79 in 10.0 miles WSW 4.6 mph - N/A   Clear
2:53 AM 25.0°F 21.0°F 85% 29.78 in 10.0 miles West 8.1 mph - N/A   Clear
3:53 AM 24.1°F 19.0°F 81% 29.78 in 10.0 miles West 8.1 mph - N/A   Clear
4:53 AM 23.0°F 18.0°F 81% 29.79 in 10.0 miles West 5.8 mph - N/A   Scattered Clouds
5:53 AM 23.0°F 18.0°F 81% 29.80 in 10.0 miles West 6.9 mph - N/A   Clear
6:53 AM 26.1°F 21.0°F 81% 29.80 in 10.0 miles West 4.6 mph - N/A   Mostly Cloudy
7:53 AM 30.9°F 25.0°F 79% 29.81 in 10.0 miles West 4.6 mph - N/A   Mostly Cloudy
8:53 AM 34.0°F 27.0°F 75% 29.82 in 10.0 miles West 4.6 mph - N/A   Mostly Cloudy
10:53 AM 41.0°F 28.0°F 60% 29.81 in 10.0 miles Calm Calm - N/A   Scattered Clouds
11:53 AM 45.0°F 27.0°F 49% 29.82 in 10.0 miles WSW 4.6 mph - N/A   Scattered Clouds
12:53 PM 46.9°F 25.0°F 42% 29.81 in 10.0 miles Variable 4.6 mph - N/A   Partly Cloudy
1:53 PM 46.0°F 25.0°F 44% 29.80 in 10.0 miles Variable 3.5 mph - N/A   Clear
2:53 PM 46.9°F 24.1°F 41% 29.81 in 10.0 miles Calm Calm - N/A   Partly Cloudy
4:53 PM 45.0°F 27.0°F 49% 29.82 in 10.0 miles SSW 4.6 mph - N/A   Scattered Clouds
5:53 PM 39.9°F 26.1°F 58% 29.86 in 10.0 miles Calm Calm - N/A   Mostly Cloudy
6:53 PM 37.9°F 26.1°F 62% 29.87 in 10.0 miles WNW 3.5 mph - N/A   Mostly Cloudy
7:53 PM 39.0°F 27.0°F 62% 29.88 in 10.0 miles Calm Calm - N/A   Overcast
8:53 PM 35.1°F 25.0°F 67% 29.91 in 10.0 miles Calm Calm - N/A   Clear
9:53 PM 28.9°F 23.0°F 78% 29.93 in 9.0 miles Calm Calm - N/A   Clear
10:53 PM 28.0°F 21.9°F 78% 29.94 in 8.0 miles WNW 3.5 mph - N/A   Clear
11:53 PM 26.1°F 21.0°F 81% 29.96 in 8.0 miles WNW 5.8 mph - N/A   Clear
Moon Phase
Feb. 19 Feb. 25 Mar. 04 Mar. 11 Mar. 19
Sunrise:06:58 AM (PST) Moon Rise:11:58 AM (PST)2/19
Sunset:05:33 PM (PST) Moon Set:02:46 AM (PST)2/19

Copyright © 2014 The Weather Underground, Inc.